RH
4 5 5 5 6 7 9 10 10 11 11 11 12 14 15 17 17 16 16 17 17 15 15 17 18 19 19 18 19 22 23 18 12 9 10 15 16 13 11 10 9 8 8 9 12 13 12 13 12 11 10 11 14 16 18 20 19 22 39 39 33 45 41 34 37 34 32 30 30 27 29 39 35 31 34 33 33 34 31 27 28 29 26 25 24 25 26 26
4 5 5 6 9 11 12 13 13 13 13 13 14 15 16 17 17 16 17 18 17 16 17 17 17 17 18 18 20 20 21 18 11 9 14 19 18 15 12 10 9 8 8 7 7 7 6 7 7 7 6 10 15 17 19 21 19 32 47 38 40 51 39 31 33 32 31 27 29 29 31 37 36 36 37 35 33 35 38 31 25 25 22 22 23 26 27 27
5 6 8 11 13 15 15 15 16 17 16 18 18 17 16 16 17 17 18 19 18 18 19 20 20 19 19 20 22 19 18 16 11 12 19 21 20 18 15 12 11 10 10 10 10 9 8 7 8 9 8 11 16 17 19 21 23 31 35 38 51 54 39 30 28 27 25 26 32 32 35 39 36 36 36 37 38 39 41 34 28 26 23 23 23 25 27 26
6 9 13 15 16 17 17 17 19 20 20 21 20 18 17 18 19 19 19 19 18 20 21 21 22 21 20 22 20 14 14 15 15 18 21 21 22 21 18 16 14 13 14 14 14 14 13 11 12 12 11 14 17 20 22 23 25 30 33 42 53 48 37 28 23 26 26 30 35 35 39 38 35 37 35 37 41 39 33 27 27 28 26 25 24 25 27 27
9 14 17 18 18 18 19 20 21 22 22 21 20 19 19 19 20 20 20 17 18 20 21 21 20 19 19 20 14 9 12 16 18 20 20 23 24 23 22 18 16 16 16 16 16 15 15 13 12 12 13 15 19 22 24 27 27 32 37 39 42 40 34 26 26 30 31 34 37 39 40 36 35 37 34 38 44 38 26 24 27 27 28 28 28 29 30 31
15 18 19 20 21 21 22 23 23 23 23 22 22 21 20 20 20 20 19 17 18 20 20 20 18 16 17 17 12 9 14 18 20 21 22 23 24 24 23 20 18 17 16 17 17 16 15 14 13 14 17 20 26 27 26 34 34 34 40 38 36 37 32 28 30 33 35 39 41 41 39 37 39 39 36 37 38 31 25 26 28 29 29 30 31 32 34 35
20 21 22 23 23 24 24 24 24 24 24 24 22 21 20 19 20 19 18 18 19 20 20 19 17 16 16 17 14 12 18 22 23 23 23 24 23 24 22 20 19 17 17 17 17 17 14 14 15 16 22 25 29 33 32 37 36 36 45 43 38 37 34 33 32 32 34 38 39 36 36 38 40 42 40 34 29 27 27 29 29 29 28 27 31 33 36 37
22 23 24 24 25 24 24 24 24 24 24 23 21 20 19 18 19 18 18 18 20 20 19 18 18 17 16 17 16 17 22 24 23 22 23 24 23 23 21 20 19 17 17 17 17 17 15 17 19 18 23 26 27 33 36 36 39 44 47 44 40 38 36 32 28 28 30 34 35 35 39 38 36 40 40 30 27 29 29 30 30 25 24 28 33 37 41 40
22 24 25 25 25 24 25 24 24 25 24 22 19 18 17 18 18 17 17 19 21 20 18 17 17 17 17 16 15 19 24 24 24 23 21 22 23 22 21 20 20 18 17 18 17 17 17 18 20 21 23 26 29 34 37 34 36 43 42 40 42 41 38 31 26 28 31 35 36 39 43 38 34 36 35 29 29 33 31 31 32 27 30 37 40 44 47 46
24 25 25 25 25 24 24 24 25 25 23 21 19 18 18 18 17 16 19 22 22 20 18 17 16 17 17 16 16 21 25 25 24 22 19 20 22 20 21 21 21 20 20 21 21 20 20 19 22 24 23 27 33 37 39 34 33 42 43 41 45 43 35 29 28 32 34 35 39 45 45 40 35 31 31 33 32 35 36 37 38 38 41 45 47 48 50 51
24 25 25 25 24 24 24 24 24 24 23 21 19 19 18 16 16 17 20 24 24 21 18 18 18 19 18 16 19 23 22 22 23 20 17 19 20 20 20 21 22 22 22 22 24 23 21 23 22 20 23 28 33 37 39 36 38 44 40 38 45 41 30 29 32 34 36 34 35 42 40 34 32 33 37 37 36 39 42 45 45 46 47 47 49 49 50 54
24 25 25 24 24 24 24 24 24 23 22 21 19 19 18 17 17 19 22 23 23 20 17 17 17 19 19 17 19 22 19 19 21 19 17 18 18 19 19 20 23 23 23 23 24 23 18 21 20 17 22 29 33 34 35 38 44 45 37 38 49 45 32 33 35 33 36 34 32 35 32 28 32 40 43 38 39 41 42 47 48 49 49 47 47 47 47 51
24 25 24 23 23 23 23 23 23 23 21 19 18 18 18 18 20 22 23 23 22 19 17 17 16 15 16 17 18 18 16 16 19 20 18 19 19 21 20 20 22 23 24 22 24 25 18 16 19 19 20 29 34 29 30 35 35 38 45 51 53 42 27 29 37 35 34 35 31 29 26 26 37 45 45 45 45 42 43 48 49 47 47 46 45 44 43 44
24 24 23 23 23 22 23 23 23 23 22 20 18 18 19 21 23 22 21 21 21 20 18 18 17 16 14 17 17 15 15 14 17 19 20 22 23 23 22 21 23 23 24 22 22 26 22 15 17 21 23 30 31 32 45 47 42 46 53 63 61 39 21 26 43 44 36 36 32 33 35 29 37 49 48 50 50 46 48 50 48 46 45 45 43 43 42 39
24 23 23 23 22 22 21 21 22 22 22 21 20 19 21 22 20 18 18 19 19 20 19 17 17 17 15 16 16 14 12 11 13 17 20 23 23 25 24 22 23 22 21 21 20 22 23 16 15 23 27 27 31 45 60 58 63 65 43 45 60 47 34 35 47 56 47 40 34 38 48 42 41 51 51 51 51 48 49 49 47 46 44 43 42 42 41 40
23 23 23 23 23 23 22 22 22 21 22 22 21 21 22 22 19 18 19 19 17 17 17 17 17 15 16 17 15 13 12 11 14 17 18 21 22 23 24 23 23 20 17 17 17 19 19 17 19 25 29 34 45 57 60 51 61 69 46 41 57 54 47 38 41 60 56 45 43 41 47 51 48 49 50 51 50 48 48 48 47 45 44 43 42 41 40 37
23 23 23 23 24 23 23 23 21 21 22 21 20 20 20 19 19 18 18 19 18 15 14 16 15 15 17 17 16 15 15 13 14 15 17 20 21 23 23 23 22 19 18 16 14 15 13 15 20 24 31 48 57 52 46 44 48 61 64 64 68 63 58 48 39 53 57 50 55 53 51 57 52 48 52 51 49 49 49 48 47 44 43 43 42 42 41 39
22 22 22 22 23 23 24 24 22 21 20 18 17 16 16 17 18 18 18 18 16 15 16 15 15 20 20 19 21 18 15 14 13 15 17 19 20 22 22 21 22 22 22 18 13 14 15 16 22 24 32 48 60 55 40 35 38 51 65 71 77 75 65 56 44 49 58 56 57 56 55 61 55 50 52 51 49 49 48 48 46 44 42 42 42 42 42 42
22 22 22 22 22 23 23 23 21 18 17 16 15 15 15 13 13 13 14 14 14 19 24 21 20 25 22 22 22 15 13 14 13 13 14 17 18 19 22 22 21 21 23 23 20 23 25 25 29 32 40 51 64 68 50 40 46 56 68 74 79 78 66 53 47 55 61 57 61 59 58 63 58 54 54 51 48 47 47 46 45 44 43 41 42 41 42 43
21 22 21 21 21 21 20 19 19 17 16 17 17 17 16 15 18 17 14 14 16 19 22 21 22 24 23 23 19 12 13 14 13 13 12 14 15 15 19 17 16 20 35 47 39 31 33 44 51 48 55 62 64 70 66 64 70 73 78 83 85 83 70 50 45 60 61 53 64 65 61 66 62 58 56 50 47 46 47 47 46 45 43 42 42 41 40 42
22 21 20 19 17 18 18 17 18 17 18 18 18 18 17 19 24 22 17 18 18 16 15 16 19 21 20 22 19 14 14 13 11 11 11 14 15 15 16 23 29 29 47 64 50 34 34 46 55 53 61 68 71 81 80 76 81 84 85 87 84 73 59 40 37 58 59 50 65 70 63 66 64 61 58 51 48 48 47 47 47 46 44 43 42 42 41 40
21 19 18 16 16 17 16 17 18 18 18 18 17 17 18 18 20 20 17 17 18 17 16 15 16 19 18 18 19 14 13 17 14 9 12 11 12 19 20 33 50 48 58 64 50 47 48 45 49 58 71 78 83 91 80 68 76 86 81 71 62 53 50 43 43 61 59 47 65 74 66 65 65 64 62 55 50 48 46 45 45 45 44 44 43 43 43 41
20 18 16 16 17 15 15 16 16 16 17 16 15 15 17 17 18 19 16 14 16 16 17 15 13 17 17 15 17 15 12 20 21 13 13 11 13 24 25 35 56 59 65 59 40 40 40 40 53 65 69 60 58 74 72 59 62 67 61 52 46 45 50 46 45 59 58 53 69 75 69 66 63 65 65 58 51 47 46 44 42 43 43 44 43 43 43 43
19 17 15 16 16 15 16 15 14 16 14 13 14 13 16 16 16 19 16 15 16 14 15 14 13 15 17 17 16 16 14 17 23 16 14 15 16 25 30 38 49 46 57 67 54 41 30 39 61 65 60 44 33 55 65 52 48 51 54 50 41 43 52 49 49 55 54 59 71 68 61 58 61 72 73 60 52 49 47 45 43 42 42 42 42 42 44 44
18 15 16 16 15 16 16 14 14 14 13 14 14 13 16 16 16 18 20 25 18 12 15 13 12 14 15 16 14 17 16 13 18 18 16 17 17 27 33 33 35 34 51 69 61 46 35 42 56 54 58 54 36 42 50 50 52 50 52 49 35 43 58 58 60 59 47 46 57 57 51 53 67 82 80 63 54 52 49 46 46 44 42 42 42 43 44 45
17 15 16 15 16 17 15 15 15 12 14 16 13 14 17 18 20 16 26 44 28 8 14 13 11 15 14 13 13 17 20 16 16 16 16 17 16 24 30 30 31 33 48 60 48 39 39 46 55 50 54 55 37 34 42 53 55 39 42 51 47 56 64 61 63 58 44 37 46 54 47 46 61 75 80 70 58 55 53 49 47 46 44 43 44 44 45 47
18 17 16 15 17 16 15 16 14 13 16 15 14 16 15 20 24 14 26 50 32 8 14 15 12 15 14 14 13 16 22 18 14 14 15 19 16 16 26 34 35 34 49 59 44 34 35 44 57 58 56 48 30 30 43 52 47 33 43 58 57 56 55 59 61 59 59 49 47 57 50 42 49 64 82 75 60 58 57 54 50 47 47 46 46 47 47 50
17 16 15 15 15 15 16 15 14 16 15 16 18 13 15 23 22 21 34 36 18 10 16 15 13 12 13 15 13 16 21 18 17 16 14 17 17 14 23 33 32 34 47 49 35 31 35 38 50 56 50 37 27 32 48 55 46 41 53 59 58 59 60 66 69 77 82 55 36 45 43 40 41 52 75 72 62 64 62 60 56 49 49 48 49 50 49 52
16 15 15 15 15 16 16 15 17 17 14 18 16 12 17 16 13 34 48 26 8 14 17 14 15 14 14 17 18 17 18 18 20 18 14 17 18 16 23 28 30 38 42 35 26 26 32 39 49 52 39 31 37 44 56 61 47 44 57 53 55 70 78 78 74 80 76 48 38 42 36 39 36 41 68 70 65 70 64 61 57 50 52 50 50 52 50 52
16 16 14 15 16 16 16 16 18 16 17 18 14 15 16 14 31 54 43 17 10 16 17 16 20 23 27 31 28 23 23 23 21 19 18 19 18 18 22 22 28 43 43 37 33 27 30 44 56 54 41 41 52 51 55 61 48 47 57 47 40 56 74 82 77 65 48 34 41 41 36 43 40 51 77 72 66 73 66 62 57 51 53 51 51 52 50 51
16 16 15 17 16 16 17 16 16 16 16 14 13 17 11 23 58 57 24 12 15 19 23 29 36 40 44 44 33 29 36 32 22 25 29 31 31 30 30 29 33 48 49 40 39 37 34 38 44 46 44 46 53 49 50 56 51 48 53 43 32 38 53 66 71 62 41 28 30 32 39 46 42 58 77 65 62 69 64 63 61 55 55 53 53 52 50 50
17 16 16 17 15 17 16 14 17 15 15 17 15 15 18 34 46 35 27 21 14 23 31 37 51 53 50 48 33 34 44 35 27 35 42 51 56 48 47 49 43 42 45 40 40 42 35 27 26 33 41 42 42 41 43 48 48 46 50 50 47 49 51 49 52 55 46 34 27 30 46 51 44 59 73 64 60 61 57 58 57 57 57 54 53 52 48 45
17 16 16 16 15 16 14 13 16 14 16 17 10 17 37 43 26 21 41 34 16 29 40 49 63 55 44 38 30 36 41 30 28 34 40 50 58 55 54 59 51 37 35 39 43 43 39 35 29 27 34 36 34 36 38 40 43 48 54 55 54 58 63 63 57 53 49 41 31 30 49 56 46 58 75 69 59 54 51 53 54 56 57 55 54 49 43 39
16 15 15 14 14 14 14 14 15 16 17 10 14 37 43 29 19 24 41 46 39 43 51 59 57 40 33 31 32 41 38 30 30 30 38 46 51 57 56 56 57 50 44 43 44 42 37 34 28 24 26 28 31 39 44 43 45 58 61 55 54 55 62 76 73 59 53 51 43 42 54 57 47 55 71 63 53 51 49 51 56 56 56 55 52 44 37 34
14 14 13 13 14 14 15 15 14 16 14 4 23 53 37 15 26 34 37 50 56 53 56 53 40 34 37 39 46 42 28 33 39 32 38 47 48 53 55 56 59 60 56 48 43 44 41 31 27 31 30 27 32 41 48 43 40 56 64 56 59 58 56 71 72 61 63 68 67 63 58 54 53 63 72 65 59 56 51 52 54 54 56 56 49 41 35 33
11 10 10 11 12 13 15 15 13 13 10 8 25 45 38 25 33 41 44 53 57 58 57 45 36 40 41 45 59 49 26 35 42 29 31 44 47 47 54 60 61 61 60 53 48 45 41 34 33 36 32 30 34 36 44 45 34 43 54 48 52 55 54 70 75 67 71 78 75 66 56 49 51 64 75 73 67 59 51 49 48 51 58 57 46 38 34 33
10 9 8 8 8 11 12 9 10 8 3 13 33 43 46 42 38 45 56 60 62 61 54 39 27 32 39 44 53 47 32 33 35 26 24 33 37 41 54 57 53 59 61 57 53 46 43 45 45 42 35 30 30 30 42 51 41 41 49 47 51 55 58 73 83 80 82 82 68 56 56 52 50 64 75 72 64 54 48 44 42 52 62 55 43 36 33 34
10 9 7 8 8 8 8 5 9 8 3 27 59 60 52 49 43 50 62 66 67 62 50 34 20 26 40 40 40 50 44 33 35 35 28 27 27 35 53 54 47 58 64 57 54 52 52 53 48 47 42 33 29 31 40 48 45 43 46 48 53 60 70 80 83 83 87 88 73 58 58 54 53 67 72 65 59 53 48 41 43 60 64 50 39 35 34 37
10 9 8 11 10 6 9 7 4 4 9 41 72 64 51 55 54 57 66 69 68 60 47 37 28 31 41 38 40 59 58 42 45 45 29 24 26 34 52 54 47 58 62 55 57 62 58 50 44 43 41 35 32 33 40 46 49 51 53 60 65 68 73 77 75 77 82 88 85 77 68 55 57 70 68 60 58 50 45 44 52 64 58 42 37 37 37 40
9 9 8 11 11 8 8 4 5 19 35 51 64 58 51 58 56 54 63 67 61 49 41 44 41 34 42 46 42 54 65 62 60 52 34 27 28 38 61 67 62 65 62 55 63 69 62 52 44 40 38 35 33 34 38 41 48 61 72 83 89 82 73 73 74 74 82 94 95 95 84 60 55 66 62 57 53 44 42 49 58 57 45 38 37 37 40 44
7 10 10 8 11 10 4 8 26 52 67 62 58 60 61 58 50 47 56 63 59 47 42 53 53 43 46 48 41 53 69 71 69 58 43 35 26 31 57 75 82 84 68 60 68 68 65 63 59 56 47 32 32 42 44 45 52 67 82 89 94 90 81 85 86 74 80 93 90 97 97 70 57 62 55 50 47 39 42 51 54 47 38 39 39 39 44 47
8 15 12 6 11 6 4 27 50 62 72 65 52 56 64 60 47 42 50 57 56 49 44 51 58 61 60 52 52 65 69 66 66 51 37 37 33 36 54 69 86 94 73 62 69 64 65 72 68 65 51 32 45 64 58 53 57 65 76 80 86 92 90 96 97 82 84 84 72 84 92 68 65 69 52 43 43 39 45 51 47 42 39 40 41 43 46 49
9 14 9 5 10 3 7 36 53 58 67 64 52 51 56 55 43 40 50 54 51 47 43 47 50 51 55 58 61 61 52 49 50 38 35 46 48 51 62 65 77 88 72 62 68 63 61 69 65 55 41 32 51 69 64 61 67 76 81 77 80 90 92 96 94 88 96 89 73 89 91 63 62 68 48 39 42 42 48 49 43 42 43 42 44 46 48 51
9 11 8 7 6 3 15 37 49 62 65 51 44 46 48 49 44 45 54 55 56 54 49 50 47 42 53 67 67 57 44 36 33 34 41 49 49 53 64 71 78 82 71 64 73 64 49 57 67 58 46 38 40 48 53 54 64 82 88 79 77 83 87 90 89 91 98 80 68 93 96 61 45 47 41 39 42 45 49 46 43 44 44 44 47 48 50 52
7 9 7 7 5 5 22 34 41 66 74 54 46 47 46 46 41 44 52 50 54 57 47 41 45 52 62 67 67 68 55 32 27 40 49 50 54 59 63 70 72 78 82 80 83 76 60 63 71 60 53 60 56 50 51 49 55 72 82 82 81 80 82 85 87 96 96 76 73 91 89 60 40 41 46 43 44 50 50 44 43 45 45 46 49 50 51 53
8 13 12 12 9 8 21 24 23 48 67 60 50 44 43 43 34 36 46 44 45 49 44 41 44 49 56 60 66 71 60 40 37 50 55 54 56 57 62 69 63 66 88 92 83 85 86 81 74 58 49 60 63 51 46 55 63 68 77 89 89 83 83 84 87 93 90 86 88 80 70 68 60 52 51 46 48 54 50 45 46 46 47 48 49 50 52 54
14 25 26 20 13 14 27 29 24 36 47 46 43 39 45 53 42 33 37 38 40 42 42 46 49 47 49 55 58 56 52 47 42 42 48 58 64 58 60 73 66 61 81 87 73 76 81 69 66 69 56 53 61 55 51 63 70 68 80 94 91 84 83 86 91 86 80 93 95 69 62 79 72 55 51 50 53 54 47 47 49 47 49 51 51 52 53 55
18 26 26 22 20 30 41 36 33 42 45 50 56 50 50 57 47 36 37 36 35 35 30 31 45 59 68 64 50 45 51 51 42 41 49 63 74 68 62 70 68 60 69 72 59 64 71 61 64 78 71 61 67 64 61 68 68 71 88 93 86 85 85 87 89 79 76 96 97 71 68 77 64 51 51 52 52 50 47 49 49 50 52 51 52 54 54 55
16 20 21 21 26 38 44 36 34 41 47 59 66 56 52 51 39 41 53 44 32 34 29 23 36 63 86 84 59 44 50 50 44 49 57 61 67 71 68 66 62 59 68 78 73 65 61 58 68 84 83 75 73 67 68 70 66 72 88 88 82 82 82 81 80 74 75 83 77 65 67 65 53 49 52 50 48 48 48 50 50 51 52 52 54 56 55 57
10 13 15 19 25 34 37 33 35 44 52 55 50 46 56 56 39 45 57 43 28 34 37 35 44 64 89 98 77 50 42 41 41 48 57 63 71 78 71 62 66 72 79 92 94 73 54 55 73 92 93 80 73 71 67 65 68 80 87 84 82 81 77 77 76 72 73 70 61 60 67 63 51 47 50 48 47 48 50 50 51 52 53 54 55 56 58 61
6 6 6 16 30 36 32 30 42 57 59 51 44 47 57 57 51 56 54 40 34 40 44 47 54 67 87 96 85 64 49 46 49 51 53 58 66 72 67 64 79 91 90 98 101 88 80 78 82 97 96 73 60 64 61 58 72 92 96 87 83 83 79 76 72 65 63 63 62 64 71 68 55 48 49 49 48 50 51 50 52 53 54 56 57 58 60 62
6 6 4 12 28 38 37 35 46 52 42 37 48 57 52 49 59 60 40 30 40 46 49 54 55 62 73 67 55 53 55 59 65 67 72 76 76 76 78 80 88 93 96 102 100 95 99 95 90 99 95 69 57 64 65 58 58 73 89 87 77 75 72 65 60 52 45 51 62 68 69 63 53 50 53 52 49 50 50 51 54 56 57 58 58 59 61 64
Wind_Speed
6 6 4 4 4 5 5 4 4 3 3 2 2 1 0 1 2 5 7 8 9 9 12 12 11 8 6 6 6 6 9 12 11 11 13 15 13 11 10 9 8 7 7 7 8 8 8 8 8 8 7 5 2 1 1 1 4 4 2 2 3 3 4 5 6 6 3 3 6 6 5 2 7 11 11 12 12 14 19 25 24 22 23 24 25 24 23 24
6 6 5 5 6 6 6 4 4 4 3 3 3 2 1 1 3 7 7 8 8 10 14 13 11 10 8 7 7 7 8 10 11 14 17 16 14 12 10 9 8 8 7 7 7 7 6 6 5 4 3 4 3 3 3 3 4 3 3 2 4 5 5 6 6 5 4 5 8 10 9 5 7 10 11 9 12 13 14 23 23 19 22 25 24 23 22 23
7 6 6 7 7 6 6 5 5 4 4 5 4 4 3 3 6 8 7 7 9 12 13 13 12 11 10 9 9 8 6 7 12 16 16 15 15 14 11 9 8 8 7 7 7 6 5 4 3 2 1 4 3 3 4 3 2 2 3 2 5 6 4 6 9 9 10 10 9 10 10 8 10 11 8 5 11 13 8 13 14 15 27 32 31 28 27 27
7 8 8 8 7 6 6 6 6 6 6 5 4 4 3 4 6 7 6 8 9 11 11 11 11 10 10 9 10 9 3 5 12 15 13 13 14 14 13 10 9 8 8 8 8 7 6 4 3 2 1 2 2 2 3 1 1 3 4 4 5 4 2 7 8 10 11 9 8 10 11 12 13 10 8 5 7 9 9 14 16 21 33 36 37 35 33 32
9 9 9 8 7 7 7 7 7 6 6 5 4 3 4 6 6 6 6 7 8 9 10 11 10 10 10 9 12 10 2 3 9 12 11 12 13 13 14 12 10 8 8 8 8 7 6 4 3 1 1 1 1 1 2 2 2 2 4 5 3 5 1 8 8 9 11 11 11 10 9 12 13 10 9 6 4 7 15 24 26 29 33 34 36 36 34 33
10 10 9 8 8 9 9 8 7 6 5 4 4 4 6 7 6 6 6 7 9 9 10 11 10 10 8 10 12 10 8 4 8 11 10 11 11 12 13 13 12 9 7 7 7 7 6 4 2 0 1 1 1 0 1 1 2 1 4 5 2 1 3 9 13 15 15 13 10 8 9 13 12 9 9 8 8 13 23 29 30 30 29 30 33 35 38 37
11 10 10 10 10 10 9 9 7 6 5 5 5 7 8 7 7 7 7 8 9 10 11 11 10 8 6 9 12 15 17 11 11 12 11 11 10 11 12 12 13 9 7 6 7 7 6 4 2 1 3 3 0 0 2 1 1 1 4 5 4 3 5 12 19 18 16 12 10 10 10 11 8 5 8 9 11 22 29 29 30 31 33 36 40 41 42 42
11 11 11 11 11 10 9 8 7 6 6 7 8 9 9 9 9 9 9 9 11 12 12 13 12 8 6 8 12 20 21 14 15 14 11 10 8 8 10 12 13 10 8 6 7 7 6 6 4 2 2 2 1 1 3 3 2 3 3 5 3 6 7 13 18 13 13 11 9 8 8 9 8 6 6 8 24 32 30 31 34 36 38 42 43 43 43 45
12 11 11 11 10 9 9 8 7 8 9 10 10 11 11 11 11 10 10 10 12 12 14 18 17 13 7 5 10 16 15 14 16 15 11 7 5 7 8 11 13 12 10 9 9 8 7 7 6 4 1 1 1 2 3 2 3 3 5 7 5 10 9 13 16 11 11 9 8 6 8 9 8 5 2 16 37 35 30 35 38 40 42 42 42 43 45 47
12 11 11 11 9 8 8 7 8 9 10 10 10 10 10 10 10 9 10 10 12 11 13 17 19 20 14 10 13 11 10 14 16 14 10 6 4 6 7 9 11 11 12 12 11 10 9 8 8 5 1 2 2 2 1 1 3 5 9 9 6 10 7 11 13 11 11 6 11 11 7 10 5 2 5 25 39 31 32 37 40 42 41 41 40 43 46 49
11 11 10 9 8 8 8 8 8 9 9 8 8 9 8 8 8 9 10 10 11 10 10 11 13 18 18 22 23 12 12 17 16 13 9 6 4 4 5 6 8 9 10 12 12 11 11 9 10 7 1 3 3 1 2 1 4 5 10 9 7 7 0 7 10 11 10 5 20 16 2 7 5 6 14 30 34 27 33 37 40 41 39 40 40 43 48 50
11 10 9 9 8 8 7 7 8 9 9 8 8 7 7 7 7 8 9 9 9 9 10 11 12 12 15 26 26 16 18 21 17 13 8 6 6 4 4 5 6 8 9 11 12 11 12 9 8 10 6 4 1 2 1 4 5 2 7 5 8 9 3 6 10 12 10 7 26 18 1 7 7 11 24 32 31 29 37 41 41 41 38 41 41 43 46 49
10 9 9 9 8 7 7 7 7 8 9 9 9 9 8 8 8 8 8 7 7 8 8 10 12 14 15 18 21 19 20 23 17 9 6 6 5 5 5 5 5 8 8 10 9 7 11 12 7 8 14 7 2 1 1 4 4 1 5 2 5 8 1 7 12 14 10 8 26 16 2 6 7 16 28 30 30 34 41 41 41 42 40 41 42 44 45 48
10 10 9 8 6 6 6 6 7 7 8 8 8 9 9 8 8 8 9 8 7 6 6 6 7 12 15 13 15 21 21 20 14 6 6 6 5 6 5 4 5 7 7 8 8 5 7 11 12 9 13 14 1 2 2 4 5 1 3 3 4 5 4 10 11 10 8 8 22 13 2 4 7 17 28 29 30 34 37 36 39 41 42 42 42 43 44 45
11 10 8 7 6 6 6 7 6 6 7 6 7 8 8 9 9 10 12 11 9 6 6 7 6 7 11 10 11 19 21 21 17 11 9 7 6 6 4 3 4 6 7 7 6 6 5 7 15 14 11 17 10 3 3 5 4 4 4 4 4 3 6 11 6 7 6 5 15 13 1 3 7 16 26 28 29 33 34 33 37 40 41 44 44 45 44 44
10 9 8 8 9 10 9 8 6 7 8 8 7 7 7 7 8 9 10 10 11 10 7 7 9 10 9 8 8 16 22 25 23 16 9 6 7 7 4 3 4 8 10 10 7 5 6 6 12 16 14 16 11 4 4 5 4 4 4 3 5 4 6 9 3 6 7 4 9 9 1 3 5 13 24 27 28 31 32 32 34 37 40 42 44 46 47 49
10 9 10 10 10 10 9 8 7 7 8 7 8 8 8 7 5 4 5 7 9 12 13 10 8 10 12 13 12 16 20 23 25 18 9 5 7 7 4 1 5 8 8 9 9 8 8 9 8 9 13 11 5 4 6 6 6 4 4 2 3 4 4 6 5 5 10 7 6 4 1 2 5 10 19 24 26 29 29 29 30 34 37 39 41 44 46 49
10 9 9 8 6 6 6 6 6 6 9 13 18 20 20 19 14 9 7 6 6 8 13 14 8 6 8 17 18 17 12 18 26 21 12 6 7 9 5 2 5 4 3 5 10 13 10 9 7 3 7 8 6 7 6 2 3 4 4 3 3 4 4 6 7 4 9 7 5 5 3 4 5 8 15 21 24 27 26 25 27 31 34 37 39 41 43 44
9 8 7 6 6 7 7 5 7 13 18 21 21 21 23 26 26 24 22 19 16 10 7 13 13 3 2 15 21 16 7 15 27 24 15 8 7 10 10 8 7 3 4 4 9 15 11 7 7 5 6 7 5 3 3 3 4 5 4 3 4 5 5 8 9 4 6 5 4 5 4 4 5 7 12 18 21 26 26 26 28 30 32 35 38 39 41 41
9 8 8 9 10 11 11 11 14 17 15 11 8 9 9 13 16 20 26 30 27 19 13 16 16 8 3 13 23 19 7 12 28 29 23 14 4 7 11 7 7 12 9 2 5 10 9 8 6 2 4 6 5 3 3 2 2 2 1 3 5 5 6 9 8 4 4 4 2 3 6 5 5 6 9 15 21 26 26 25 27 29 30 33 35 38 39 39
9 9 11 14 15 15 14 14 12 9 5 3 2 5 7 7 7 8 16 22 21 18 20 22 21 15 11 14 23 23 12 13 28 33 28 22 9 5 12 9 6 12 8 3 2 4 8 8 3 4 6 5 4 2 3 0 0 1 2 3 5 4 6 10 7 2 4 5 2 2 7 4 4 4 6 13 17 19 20 20 24 28 30 32 34 36 38 39
10 12 15 17 17 16 15 13 10 7 6 5 6 11 13 11 10 8 10 13 14 16 16 20 25 24 18 17 21 25 25 21 27 35 31 26 20 11 11 12 7 4 6 4 2 5 7 5 5 5 4 1 2 3 3 1 1 2 1 1 4 4 6 10 5 1 2 4 3 1 5 3 3 3 4 11 12 14 19 20 23 27 30 32 34 36 39 41
12 15 16 16 17 16 15 13 11 9 8 8 10 11 9 7 6 6 7 7 10 14 16 18 26 29 25 20 19 24 32 24 21 32 33 26 24 17 11 10 6 3 6 7 5 4 5 2 4 1 2 2 2 4 4 3 1 2 1 1 5 5 4 6 3 2 4 2 3 1 3 3 3 1 2 8 11 14 18 20 25 29 29 29 31 33 38 41
13 15 15 14 14 14 13 12 10 8 7 8 10 10 6 4 3 1 3 4 4 11 17 17 23 31 27 22 19 18 24 23 20 28 31 26 20 12 8 7 5 5 5 4 6 6 2 3 1 2 3 4 2 5 6 5 6 3 3 2 5 6 3 5 6 8 7 1 1 1 1 2 2 1 1 4 7 11 17 21 26 30 30 30 31 32 34 36
14 14 12 10 9 10 10 10 9 8 7 8 10 11 7 3 2 1 1 3 2 10 17 15 18 26 26 23 19 10 14 21 23 27 25 24 19 8 5 7 5 6 4 1 5 5 0 3 1 2 4 6 5 4 3 2 5 5 3 4 5 7 7 9 8 9 6 2 1 1 3 2 2 2 2 2 4 8 15 19 23 28 30 32 33 32 32 34
13 12 9 6 7 9 8 7 9 7 7 9 10 12 9 4 2 2 2 4 4 9 14 14 12 18 22 24 20 7 7 13 17 26 26 21 18 10 4 5 4 4 2 2 2 1 1 3 2 3 3 5 6 4 0 1 4 6 3 4 5 6 8 10 6 3 3 4 3 1 0 4 2 3 4 1 4 7 11 13 17 24 27 28 29 30 31 33
11 10 7 4 6 8 7 6 7 7 6 8 11 12 9 5 2 1 2 5 5 6 9 12 10 13 16 20 23 9 2 10 12 22 29 20 16 13 7 4 2 3 2 1 3 1 2 6 6 5 5 5 7 6 2 1 4 5 2 2 6 10 9 8 3 1 3 3 4 2 2 3 4 3 4 2 2 7 9 8 11 17 21 24 25 27 28 30
10 8 5 3 4 7 7 6 6 6 7 9 11 11 8 6 2 1 4 5 5 5 6 9 8 13 13 13 21 15 3 9 8 13 26 24 16 11 10 5 1 3 4 3 3 3 2 3 5 4 6 5 5 6 3 2 1 6 5 3 9 9 6 4 2 3 2 2 4 4 1 2 6 2 2 2 1 6 8 6 7 12 17 20 23 25 27 28
8 6 4 1 2 5 6 7 7 7 8 10 12 10 8 6 2 1 7 4 4 5 5 8 8 15 18 9 15 17 8 9 8 8 19 26 21 12 6 5 2 1 3 4 3 3 2 2 1 2 4 3 4 7 4 5 2 9 7 6 6 2 1 1 2 2 1 2 3 5 1 2 8 4 0 0 2 4 6 4 5 10 16 19 23 26 28 30
7 6 4 2 3 4 6 8 9 8 10 12 11 9 7 5 3 5 6 1 2 6 7 7 6 13 19 9 9 16 9 7 11 11 15 21 29 24 9 8 9 3 3 5 2 3 4 2 2 2 2 1 3 8 3 5 4 9 7 7 5 1 3 2 1 1 3 3 5 5 1 2 8 5 1 1 1 1 3 4 6 11 17 20 24 27 28 31
5 5 5 5 6 7 9 10 11 10 12 11 9 8 5 4 5 7 4 2 2 6 7 6 4 8 12 5 4 12 7 6 13 13 11 13 22 26 15 9 12 6 5 7 5 7 6 1 1 1 1 0 1 5 4 2 2 6 5 6 7 5 3 3 4 4 5 7 6 2 1 3 7 4 2 2 2 3 2 4 5 10 16 20 23 25 27 29
4 5 6 8 10 12 13 13 12 11 11 9 7 6 2 4 6 3 1 4 3 4 3 2 4 5 6 3 2 7 4 5 10 7 5 4 7 11 9 4 4 4 5 6 5 8 5 0 3 2 1 2 2 3 5 3 5 7 5 6 6 5 5 5 5 4 2 8 7 5 4 3 7 4 3 5 3 2 3 4 6 11 15 19 22 24 25 28
4 6 9 11 12 13 12 10 9 7 7 6 3 2 5 6 3 1 3 4 2 2 2 2 5 4 4 4 5 6 2 3 7 4 1 2 4 3 5 5 4 3 3 3 3 6 5 5 6 4 1 4 5 4 6 4 5 6 3 4 5 4 5 6 5 4 5 9 11 8 5 5 6 2 5 6 4 3 3 6 9 13 15 18 20 21 25 30
5 8 10 11 11 11 9 7 4 2 5 5 3 4 9 6 1 1 3 3 1 3 2 2 6 5 3 3 3 5 3 2 5 5 3 3 5 3 4 7 7 4 2 2 2 4 5 6 5 4 3 7 7 4 1 3 3 3 1 4 4 2 1 3 4 5 8 11 13 10 4 6 8 3 4 5 3 3 7 10 13 16 17 18 18 20 27 32
7 8 8 8 8 7 5 4 4 4 2 6 9 8 8 3 3 0 2 4 2 4 4 2 4 5 4 3 3 2 3 3 4 5 5 4 3 2 3 4 6 4 3 3 1 1 3 5 6 3 3 5 8 3 1 2 2 1 1 4 3 0 3 3 5 5 5 8 9 6 3 5 5 3 1 1 3 8 13 15 16 20 20 19 20 26 35 40
9 8 8 8 9 9 7 5 6 4 3 9 12 7 3 2 2 2 1 2 1 2 5 5 5 5 5 5 4 4 2 2 3 4 3 2 1 1 2 2 2 4 3 3 1 1 3 6 7 7 4 2 8 6 2 4 2 1 3 3 5 3 5 1 6 4 2 5 6 4 6 6 3 2 1 4 5 8 12 16 22 27 25 24 28 37 45 49
11 13 13 13 13 12 9 10 7 5 10 16 11 3 2 1 2 3 1 2 1 1 3 4 3 2 3 3 4 7 5 2 3 4 2 1 1 2 3 2 0 3 2 2 1 1 1 5 7 6 3 5 8 6 5 7 4 2 4 5 5 1 3 2 3 3 3 5 5 5 12 12 8 4 1 3 6 10 13 18 26 29 25 27 35 43 48 49
10 15 20 19 17 11 11 15 9 7 18 20 8 3 3 1 1 2 2 1 1 1 5 2 0 0 0 1 4 6 5 4 5 4 2 2 2 1 2 2 1 5 5 1 1 0 2 3 6 2 3 9 7 5 4 6 7 5 2 3 3 1 3 2 1 3 5 7 7 9 14 12 6 3 1 4 9 12 15 19 22 20 19 26 36 43 47 49
6 10 18 20 19 15 9 8 6 12 19 12 2 3 2 1 0 1 2 1 2 2 4 1 1 1 0 2 2 4 3 3 3 3 2 2 3 2 3 1 2 8 7 2 2 1 1 1 4 4 5 8 5 4 3 5 5 5 4 3 3 1 3 2 2 2 4 7 8 10 13 8 2 1 2 6 9 13 19 21 16 13 20 31 39 44 48 49
4 7 11 12 16 18 11 12 17 21 15 4 3 3 0 0 0 1 2 1 2 2 1 2 2 2 2 1 1 2 2 1 0 2 2 2 2 2 4 2 3 8 7 2 2 1 1 1 3 5 6 5 4 3 1 1 2 5 4 3 4 1 2 2 2 2 1 5 6 8 11 8 2 1 2 7 11 16 22 19 11 16 29 38 45 49 49 48
6 6 9 11 11 9 10 17 19 15 6 2 3 2 0 1 1 1 1 1 1 1 1 3 2 1 1 2 2 1 2 2 0 0 1 2 3 2 4 5 5 6 5 3 3 2 1 1 2 5 6 5 3 3 2 3 4 3 2 1 1 1 0 3 2 1 0 2 3 6 10 9 2 2 2 8 12 18 22 17 14 24 36 44 50 54 52 49
10 6 7 15 13 6 12 17 11 5 4 4 3 3 2 2 1 1 1 1 1 1 1 2 2 1 2 0 2 1 1 2 1 0 1 1 2 1 4 10 8 4 2 1 1 2 1 2 1 4 4 3 3 3 5 9 10 6 2 1 1 2 3 2 3 5 4 3 4 5 10 9 0 3 4 12 18 23 23 20 21 29 40 48 53 55 54 51
17 9 6 10 10 10 17 12 7 5 5 2 3 3 2 2 1 1 1 1 1 1 2 1 1 1 1 1 0 1 2 2 2 0 0 2 1 0 4 11 9 3 1 0 2 3 1 2 3 5 5 2 1 1 2 6 8 5 1 2 2 2 2 3 3 3 4 6 6 4 10 9 1 1 11 19 25 27 22 23 29 35 43 50 53 54 54 51
24 20 16 11 5 9 13 6 1 4 2 2 4 3 2 2 3 2 1 2 2 1 2 1 1 2 0 1 1 1 2 2 1 1 1 2 1 2 6 8 7 5 3 1 2 5 3 1 2 4 6 6 5 5 4 2 2 2 0 1 2 2 2 2 2 2 3 7 8 6 10 11 6 8 16 21 23 20 19 29 37 40 45 50 52 53 53 51
17 18 22 21 15 15 13 8 8 6 2 3 4 3 2 2 3 3 2 2 4 2 2 1 1 1 1 2 1 2 2 1 2 2 2 1 2 2 6 8 9 7 5 1 2 4 2 1 3 4 4 7 7 6 7 7 6 1 1 1 1 3 4 2 1 1 4 9 10 7 10 15 16 17 18 17 16 15 20 35 43 45 49 51 53 54 54 53
8 7 11 17 21 24 19 11 10 7 4 4 4 2 2 1 1 3 2 3 5 4 3 2 2 1 2 3 3 2 1 0 1 2 2 3 3 2 4 8 11 10 5 3 5 3 3 2 2 4 2 6 7 10 10 8 7 7 5 2 2 2 2 2 1 2 6 11 10 8 12 21 25 22 19 17 15 14 19 31 42 48 51 52 54 55 55 53
7 3 2 5 11 16 16 11 10 7 4 3 2 1 2 2 2 3 2 2 3 3 2 3 4 3 2 4 4 2 4 3 2 1 2 3 3 3 2 4 9 12 4 3 7 3 4 4 1 3 5 9 10 12 13 8 8 11 8 3 3 3 1 1 2 6 9 9 9 11 18 24 24 22 19 16 14 15 19 30 41 47 49 50 52 53 54 54
6 4 4 4 3 4 6 8 10 11 7 4 3 1 2 3 3 2 1 2 3 3 2 2 5 4 2 1 2 1 5 6 3 2 2 3 3 4 4 1 5 11 7 4 6 4 5 2 1 3 7 11 11 11 10 8 7 7 4 3 3 3 3 3 6 10 10 8 11 19 24 24 21 19 16 15 18 23 29 38 44 47 48 49 51 52 52 53
12 10 7 8 7 4 4 4 6 10 8 5 3 1 1 3 3 1 2 2 3 4 4 2 4 5 2 3 2 0 2 2 4 5 1 3 4 3 4 1 1 10 11 5 5 5 4 2 3 2 6 12 11 8 7 8 10 7 4 4 3 4 4 6 9 12 12 12 16 21 25 22 17 14 16 25 36 40 42 46 47 48 50 51 52 53 52 51
12 10 10 14 13 8 6 3 2 6 5 4 3 2 1 3 1 2 2 1 1 4 4 2 4 4 2 3 3 2 3 4 5 6 3 1 4 1 0 0 2 7 11 4 3 7 6 5 4 2 3 8 7 6 9 10 8 5 3 2 3 7 9 7 8 11 13 15 18 20 21 17 11 15 26 40 47 43 40 44 46 48 53 53 52 54 51 45
15 15 16 16 9 7 5 3 2 4 3 4 2 1 1 2 2 2 1 2 2 1 1 1 4 3 1 2 3 4 6 4 7 10 7 4 3 2 1 1 0 4 7 4 2 5 6 4 3 4 4 6 5 9 17 16 5 2 0 4 6 10 12 9 8 9 13 18 21 19 14 10 10 20 31 40 42 37 35 39 41 45 54 55 52 49 45 42
16 15 12 11 6 5 5 3 3 4 2 2 2 2 0 1 3 2 1 1 2 2 2 2 2 2 1 2 3 6 10 10 10 10 7 6 5 2 1 1 3 2 1 1 2 2 3 3 4 4 4 7 10 13 16 14 7 4 2 3 7 12 16 15 12 12 14 15 15 13 10 11 18 25 28 32 36 35 36 42 44 46 52 54 49 43 40 44
Wind_Direction
153 147 143 131 122 112 109 105 103 107 106 115 106 90 55 266 285 341 359 15 25 32 43 48 52 55 59 59 54 43 31 28 27 35 42 38 30 22 16 7 358 346 337 321 300 289 282 280 276 278 279 267 264 200 161 145 156 158 113 158 231 204 207 191 188 203 181 268 275 290 322 316 303 318 324 317 293 289 300 297 294 289 286 289 292 296 299 300
146 142 142 129 122 113 108 103 93 93 94 100 97 92 73 331 336 1 16 40 47 44 46 49 48 49 49 42 33 20 21 27 29 39 40 32 24 21 20 13 5 355 346 332 316 306 294 290 284 282 260 212 199 194 176 163 159 139 114 171 227 206 210 199 195 204 209 275 286 306 330 314 290 314 328 320 301 311 309 301 304 305 311 316 314 310 308 307
142 140 136 125 120 110 102 90 80 78 76 76 65 57 33 355 2 12 33 52 51 47 46 44 39 37 33 27 18 1 3 29 32 37 35 26 21 19 16 10 4 357 353 347 341 338 328 322 328 338 196 173 174 178 162 159 177 144 130 208 242 217 231 240 236 246 261 285 306 320 328 312 305 318 321 307 307 312 293 295 306 309 318 324 324 322 317 314
139 136 128 121 113 101 93 84 81 78 75 67 53 43 4 360 11 18 45 56 51 47 42 36 31 27 21 18 11 359 11 53 31 28 27 23 18 15 13 9 2 356 353 351 347 348 347 351 352 359 86 145 143 158 163 153 171 159 154 205 229 175 277 280 269 283 295 307 311 321 327 316 322 331 311 308 317 306 294 311 319 315 320 326 327 327 326 325
135 131 123 115 103 96 92 89 86 78 72 62 51 29 358 6 14 29 53 56 52 43 33 24 19 19 16 18 15 11 87 85 18 18 20 18 14 13 11 6 4 356 351 348 343 346 350 351 346 353 107 127 84 98 185 140 113 170 210 241 222 132 281 311 338 331 326 329 320 327 329 313 322 325 301 287 253 285 320 329 330 330 332 336 338 341 347 349
132 126 116 108 100 99 96 93 86 74 65 50 35 11 9 17 30 56 64 59 47 34 26 19 16 18 23 37 32 41 89 82 7 13 12 5 8 12 8 5 8 1 354 349 345 350 346 345 341 127 87 72 77 47 148 150 97 230 275 301 308 178 266 315 330 325 323 324 324 329 315 309 315 316 298 271 262 312 335 340 343 353 1 7 13 16 17 18
128 119 111 108 105 104 97 89 78 65 49 35 28 25 33 43 62 77 73 60 44 35 32 27 25 24 49 65 57 62 70 56 19 15 4 355 358 9 9 9 12 9 5 355 352 355 351 360 16 83 77 52 340 263 25 314 349 134 278 327 359 315 290 314 319 320 327 328 332 328 307 302 301 304 296 290 331 348 349 357 10 24 33 35 36 34 30 29
122 115 112 111 109 103 91 81 64 52 42 39 43 47 55 65 79 83 72 60 46 48 48 43 39 40 80 86 63 58 52 34 17 10 360 353 350 7 17 17 19 20 21 13 8 13 9 18 21 25 75 49 145 215 4 331 350 138 250 310 348 323 311 328 334 336 341 346 353 335 297 293 292 287 276 335 1 0 3 18 31 39 42 41 38 35 32 30
119 115 115 114 109 98 83 68 54 52 52 56 61 62 70 78 85 80 67 58 52 61 62 56 52 50 78 100 64 53 36 15 5 357 356 358 355 15 26 25 28 33 41 38 29 34 23 21 16 5 49 70 98 15 15 11 344 208 263 300 307 311 315 343 346 348 347 358 17 341 307 318 315 294 275 8 3 3 20 31 36 40 41 38 36 34 32 30
120 118 119 115 103 89 72 63 59 61 64 68 71 71 80 85 84 72 61 58 58 68 68 63 59 56 66 80 74 56 18 8 355 346 355 7 15 26 29 29 35 40 46 42 37 45 41 38 28 13 68 52 29 341 29 106 318 272 290 296 305 309 310 352 345 346 350 7 16 353 323 337 354 52 7 1 3 14 30 33 36 38 37 34 34 33 32 32
122 121 120 108 92 79 66 70 66 65 71 76 79 80 87 87 77 65 58 57 59 66 70 67 61 58 59 63 69 57 20 14 357 352 6 22 29 27 27 22 31 35 37 39 40 49 50 50 41 36 18 327 334 285 179 12 306 288 319 309 329 344 5 3 347 350 358 12 1 354 328 351 31 60 2 359 10 27 32 33 35 35 34 32 33 33 32 32
123 121 113 96 82 73 71 79 73 71 73 76 84 87 91 87 75 63 54 58 65 74 78 70 61 63 59 56 59 47 26 21 6 359 10 34 36 27 31 16 21 27 26 34 39 51 48 45 46 46 29 300 273 76 188 341 322 273 6 330 331 12 109 4 355 351 4 13 354 356 97 359 41 33 6 9 18 30 34 33 31 31 32 30 31 32 31 31
123 114 102 88 80 79 83 85 78 74 71 77 87 90 90 82 71 60 55 66 77 86 87 72 63 64 65 58 50 39 29 23 14 360 9 35 31 18 29 25 25 26 26 32 34 51 48 44 55 52 36 24 197 56 320 334 349 231 38 48 343 10 25 1 3 349 9 17 352 3 122 347 59 32 14 19 22 32 36 30 28 29 29 28 30 30 30 29
116 107 96 88 85 84 83 84 80 74 71 79 85 85 82 71 70 70 71 78 82 88 81 69 69 61 63 68 48 34 28 24 22 25 33 34 13 358 15 27 28 28 36 40 35 53 57 44 47 52 34 28 58 179 2 359 16 348 7 45 33 15 314 345 7 4 26 7 354 17 166 319 59 27 18 25 26 38 37 28 28 27 26 27 27 28 28 28
114 108 99 93 87 77 81 89 84 74 70 74 81 85 77 74 84 84 81 79 75 80 74 70 76 64 60 63 42 28 27 27 25 24 22 22 15 8 19 25 35 53 59 53 46 59 62 41 41 45 28 23 40 96 12 357 14 24 14 353 358 15 312 324 1 54 44 335 2 35 190 291 58 25 19 26 29 42 41 30 29 27 25 25 24 25 24 24
118 111 103 96 86 79 81 83 83 78 71 70 78 82 78 86 96 91 84 73 70 66 64 77 72 67 57 36 19 19 23 24 21 17 4 7 25 25 37 34 80 90 76 62 55 61 50 33 42 42 32 27 30 45 34 17 357 11 35 336 313 347 333 325 348 63 37 344 9 32 280 291 48 22 19 27 31 41 43 33 30 28 26 25 23 22 21 20
121 113 106 98 86 75 71 79 91 85 70 67 77 84 83 85 94 102 85 69 76 65 59 68 74 75 55 28 11 6 15 19 18 21 11 12 32 26 23 348 146 111 68 57 46 48 48 38 47 38 36 41 14 22 48 21 342 337 22 9 294 309 318 323 318 12 27 25 359 4 92 44 26 15 17 27 32 39 43 34 31 32 27 26 24 21 20 19
122 115 106 93 78 66 71 88 100 98 96 96 93 90 84 78 76 81 85 82 81 61 49 41 44 92 44 16 6 356 5 18 19 26 32 49 51 35 37 60 157 169 14 44 35 32 39 39 58 56 27 33 15 38 57 357 291 284 317 320 304 310 283 292 295 340 26 22 352 355 68 59 19 14 17 24 33 40 42 35 33 33 29 27 24 21 19 18
120 109 94 80 76 78 85 98 116 117 111 104 95 87 82 79 76 72 71 71 68 65 45 25 31 96 335 357 4 4 19 26 23 30 39 56 64 50 67 82 98 101 32 46 20 20 30 33 45 42 7 355 352 58 122 208 225 248 268 254 274 295 279 278 280 309 20 11 359 13 50 64 25 17 15 20 35 42 38 34 34 31 29 27 23 20 18 15
114 99 89 88 90 91 94 102 116 118 108 94 79 72 75 73 69 63 62 65 68 70 63 44 42 59 33 4 12 20 40 31 26 30 32 35 60 55 56 72 65 49 40 24 348 10 38 52 48 26 304 298 294 231 193 202 214 234 235 245 264 267 276 282 277 289 21 19 324 39 69 78 44 28 12 17 34 40 31 27 29 28 27 25 22 19 16 13
108 100 100 98 96 94 96 102 110 111 77 30 21 59 63 59 69 72 66 66 67 65 56 48 44 45 39 18 17 23 36 36 28 30 31 30 47 56 28 33 52 37 13 282 278 0 47 60 20 270 247 262 289 216 164 153 139 133 186 247 279 263 265 282 282 291 31 32 293 97 85 87 61 42 11 22 37 38 28 24 24 24 25 23 20 17 13 11
110 112 110 102 97 96 95 94 91 85 77 78 82 81 76 73 80 85 86 80 65 57 49 40 38 36 32 26 21 25 33 33 22 24 26 29 44 52 29 39 63 28 346 357 22 7 41 44 311 279 216 166 45 86 105 290 188 146 182 250 302 293 282 289 279 196 19 12 292 66 89 139 123 85 23 31 45 43 35 33 29 26 24 20 17 14 11 9
121 122 114 100 95 93 91 89 86 91 93 81 72 69 66 63 65 69 87 101 73 50 39 33 30 26 26 25 19 28 40 37 11 12 18 23 36 40 37 44 50 22 0 23 63 53 44 334 296 253 156 113 47 35 45 357 19 160 213 323 306 318 340 304 292 340 331 307 259 323 93 181 185 122 39 37 45 45 37 35 34 31 26 20 16 13 11 9
133 130 117 100 89 83 82 82 82 92 83 58 50 40 33 39 38 71 80 104 88 35 28 29 24 21 20 15 14 31 46 41 16 9 13 20 26 28 35 35 34 34 8 28 84 87 92 270 273 101 57 65 41 6 36 20 350 305 222 212 295 308 291 258 289 320 328 351 226 326 39 199 211 248 342 15 31 38 29 28 30 26 23 19 16 14 11 9
141 137 123 101 78 67 70 69 64 71 53 38 36 24 20 12 329 270 72 89 56 4 14 19 18 17 12 8 16 44 56 39 21 9 11 21 23 24 36 27 34 26 354 97 83 70 69 280 309 44 23 49 50 13 46 43 350 323 253 210 264 296 282 271 297 326 343 1 302 17 353 289 208 199 249 338 21 28 22 25 24 19 17 16 13 10 7 6
148 146 132 103 69 54 55 52 43 44 34 29 24 15 14 4 25 66 57 74 37 348 2 7 8 13 8 7 11 41 66 27 12 13 18 24 22 33 40 5 37 28 320 161 82 70 281 310 29 67 34 38 33 17 336 104 20 337 275 197 243 287 289 289 307 341 331 294 277 76 320 261 255 244 243 303 33 21 17 24 20 13 12 11 9 6 3 2
155 157 146 102 68 49 40 36 31 27 22 18 10 8 8 3 38 30 16 53 21 337 356 1 0 6 7 11 17 51 91 344 359 20 23 24 22 41 49 354 23 16 292 118 33 300 286 342 15 40 36 31 15 358 283 132 27 313 241 163 292 295 289 293 311 222 245 288 312 7 137 240 271 245 227 231 33 21 17 16 12 8 6 6 4 3 1 359
163 164 156 106 60 35 25 26 19 11 10 360 356 1 1 356 328 309 78 76 347 334 359 355 358 5 6 20 31 57 91 351 12 18 22 31 26 36 50 31 202 298 327 90 43 310 258 344 358 17 27 20 355 330 279 149 32 274 255 282 289 289 283 267 218 225 257 8 326 319 87 280 282 243 186 211 73 20 6 354 349 355 357 358 359 358 358 356
169 172 177 166 19 10 9 8 358 351 350 344 348 354 350 351 324 38 77 97 323 346 352 350 357 355 357 15 32 36 42 26 27 5 25 40 34 35 49 19 75 207 351 79 94 316 269 230 250 105 67 2 303 300 269 150 259 287 297 298 273 251 68 130 181 233 338 35 279 283 22 317 293 286 256 163 84 14 347 330 324 342 349 353 356 355 355 354
180 195 213 260 304 329 332 335 337 332 333 336 342 348 349 6 53 65 50 52 317 342 332 352 354 339 351 6 13 11 20 25 12 10 28 38 37 42 47 3 18 71 6 20 77 308 296 238 237 143 126 259 285 305 296 161 258 306 336 322 305 39 78 63 40 76 32 332 263 256 247 299 294 288 230 259 150 188 303 324 327 342 348 350 354 354 353 352
202 225 247 284 296 306 313 320 325 322 327 333 337 340 351 23 60 87 64 287 299 343 342 358 348 348 9 31 350 350 357 359 2 17 22 21 31 35 36 10 3 19 7 359 1 342 347 79 294 283 168 354 296 307 316 161 297 342 3 343 344 358 21 20 353 33 27 318 294 310 335 261 271 274 167 187 186 183 253 324 327 335 340 344 350 351 350 350
241 263 278 298 301 303 305 307 313 318 326 332 331 331 11 43 33 83 300 313 330 355 354 332 330 357 7 8 335 333 329 348 1 30 39 17 37 31 37 41 350 8 10 348 341 346 352 286 318 328 136 12 13 318 328 2 12 9 9 9 15 0 353 352 337 357 332 286 298 352 9 267 261 266 182 180 177 204 253 296 311 319 328 337 344 345 347 348
289 297 301 304 303 303 303 305 314 329 342 346 334 1 72 74 35 270 284 325 8 350 329 277 308 326 331 351 355 332 322 346 358 21 83 64 70 33 28 38 29 39 9 337 346 351 337 313 342 14 354 359 32 26 343 339 5 3 3 35 40 26 349 326 313 326 301 284 301 337 354 294 291 280 191 187 175 196 260 300 316 320 322 328 337 343 346 344
319 319 314 315 315 311 313 315 318 339 357 23 85 65 63 76 240 276 301 285 287 335 340 285 310 326 7 31 340 328 3 344 354 17 359 28 46 11 353 8 17 38 68 44 16 1 353 322 344 29 331 342 23 53 310 299 341 331 188 101 67 60 337 273 265 294 302 296 305 328 334 283 304 315 182 177 182 280 302 302 310 321 324 327 333 339 340 339
356 341 337 349 348 347 10 45 76 76 38 72 76 63 72 107 247 237 277 270 299 325 313 318 350 4 5 342 319 5 56 318 343 34 26 32 52 6 347 340 355 20 68 53 338 2 19 283 274 331 306 336 9 8 248 8 2 267 139 85 33 261 176 218 253 257 281 293 294 304 267 252 294 297 198 42 323 304 302 301 314 327 333 335 333 335 338 339
38 23 24 31 34 43 55 72 81 77 108 93 71 54 98 171 227 158 224 300 348 317 319 347 24 28 346 318 329 9 53 289 333 24 29 51 101 348 355 263 328 26 76 94 271 341 24 281 287 343 340 19 12 344 358 40 350 300 39 5 289 219 154 216 291 290 313 294 282 287 287 293 320 284 324 352 317 308 315 325 336 338 340 342 338 338 339 338
47 46 49 49 50 54 64 71 77 103 100 87 75 83 179 200 183 181 287 350 278 288 41 31 21 16 332 315 315 331 347 338 351 14 14 23 30 12 355 289 261 29 36 138 213 232 123 286 307 359 341 321 352 359 46 54 27 19 18 325 298 232 115 120 288 322 338 284 276 301 298 303 322 321 359 346 322 336 342 342 341 339 342 342 338 337 335 333
51 52 49 47 49 59 79 75 75 111 91 78 71 123 149 231 185 210 292 12 246 15 67 76 299 55 217 274 298 312 343 356 354 9 11 356 10 65 15 323 349 15 360 105 144 334 131 297 308 342 301 312 344 32 30 19 35 69 69 336 359 335 319 16 358 314 312 288 288 298 294 298 312 303 15 2 337 341 341 339 339 339 342 336 332 331 330 330
56 55 45 43 50 53 60 81 103 102 85 73 79 121 128 244 139 271 305 310 225 109 73 171 249 15 176 187 279 304 341 1 343 359 31 17 2 43 49 338 317 0 1 97 133 319 98 6 298 291 308 319 356 42 352 334 10 52 65 27 30 234 260 321 335 288 290 290 297 303 299 304 311 233 12 354 338 340 340 339 341 338 334 330 328 328 328 328
64 61 38 43 63 60 69 106 94 80 76 88 157 118 89 207 89 318 330 296 211 130 69 213 188 353 319 288 317 308 336 15 313 341 1 13 359 26 47 36 328 343 349 55 84 358 18 55 277 292 322 341 9 11 314 271 3 21 40 7 344 348 231 278 255 186 267 289 297 304 295 297 329 115 34 347 340 345 341 337 337 333 331 330 328 326 326 325
74 64 33 50 70 69 91 90 70 60 69 99 98 97 127 141 189 294 321 234 206 127 174 173 142 84 331 355 348 300 322 330 240 281 313 1 29 25 15 5 344 335 341 18 39 10 26 89 260 306 334 342 336 308 248 145 111 72 84 183 293 130 256 314 287 250 153 250 281 294 286 294 333 124 15 353 346 341 336 333 335 331 329 329 327 325 324 323
77 73 43 57 63 87 97 74 38 29 87 76 72 100 137 172 194 3 8 234 238 309 117 125 98 96 143 271 303 271 318 299 247 30 240 264 28 28 338 346 344 330 338 9 310 288 147 117 270 289 291 284 305 3 76 99 101 95 108 118 99 126 108 83 298 308 308 276 286 279 279 295 272 167 342 358 343 329 330 336 333 328 328 328 325 323 323 322
69 64 50 59 66 96 96 72 6 28 68 96 122 100 119 160 110 34 1 11 327 310 29 75 69 66 136 227 280 277 316 261 214 14 195 231 286 320 336 350 358 356 350 356 320 330 46 66 354 298 281 272 284 334 98 109 97 82 47 39 79 132 135 176 227 314 312 295 313 291 280 291 210 243 336 345 333 323 329 336 330 327 327 326 323 321 322 321
70 60 52 55 84 105 95 94 98 73 76 150 95 50 37 84 59 30 350 8 12 36 61 38 26 47 47 136 115 259 315 345 246 343 56 223 250 8 356 9 38 41 25 75 321 341 352 31 28 351 330 338 343 325 299 298 22 58 326 355 86 86 34 243 227 3 298 292 319 308 283 288 300 326 334 334 326 321 330 333 329 327 325 323 321 320 320 320
72 60 55 61 84 98 94 113 129 122 168 123 69 17 17 55 47 38 46 46 36 51 74 7 318 13 67 96 62 312 340 34 284 329 24 291 250 26 23 44 60 38 18 49 308 335 13 122 98 65 356 324 319 307 301 314 324 314 159 38 25 39 40 19 295 319 286 302 314 290 275 292 307 321 326 325 322 324 331 331 328 325 324 322 321 319 319 319
77 65 51 55 71 81 83 94 107 115 146 116 74 16 26 50 29 30 47 69 44 45 76 32 324 317 45 45 27 323 286 213 288 328 347 293 270 352 45 66 55 30 21 29 0 9 95 70 124 132 246 270 268 272 287 309 307 291 300 324 278 305 42 64 326 276 291 303 297 271 284 301 309 318 322 324 328 328 329 329 326 323 322 321 319 317 317 316
77 64 26 44 59 67 68 63 71 92 135 124 97 28 3 328 318 8 33 52 33 37 83 58 35 46 8 10 26 311 292 329 356 303 297 280 270 318 22 97 50 26 37 47 12 39 96 27 346 199 262 264 261 277 289 297 286 285 292 276 236 259 306 65 294 290 301 299 287 297 307 305 308 317 322 325 329 328 326 324 321 318 317 316 315 314 314 314
86 87 75 83 75 52 51 47 58 74 80 86 113 136 16 10 1 16 353 348 19 36 45 47 34 32 261 260 64 318 316 343 343 289 310 333 329 346 357 112 55 28 43 60 17 59 113 47 277 226 283 281 274 279 283 282 281 276 252 214 217 227 248 291 293 295 301 288 286 305 309 304 307 317 322 327 327 324 321 318 316 314 313 314 314 314 315 315
107 105 79 84 98 104 107 89 72 75 63 55 87 84 85 78 50 253 255 326 357 12 29 36 343 341 257 208 122 64 328 342 316 301 288 359 358 359 355 338 35 24 37 55 11 38 88 325 298 247 289 291 286 278 268 278 292 287 225 200 226 248 276 308 308 302 298 286 289 303 305 302 309 321 322 324 324 320 318 317 316 316 315 316 317 316 315 314
113 112 105 103 94 73 77 82 72 80 51 30 71 68 143 132 93 268 226 86 348 333 20 34 300 300 208 176 163 221 245 203 236 266 228 2 349 307 24 271 266 1 24 42 347 17 27 336 328 32 308 289 285 294 297 295 293 284 244 228 291 312 319 329 323 313 309 303 302 305 303 300 315 328 322 320 320 318 317 317 317 317 317 316 315 314 313 314
108 116 118 109 83 19 28 37 45 86 40 7 72 150 215 162 201 244 220 165 179 270 332 285 286 296 128 145 196 250 278 247 243 262 259 267 277 220 155 70 66 348 13 32 339 6 22 349 341 34 350 295 304 329 321 315 324 95 334 317 338 335 329 331 331 321 317 314 312 312 307 303 324 329 321 317 318 318 318 317 316 316 316 314 311 310 312 316
108 119 118 104 84 8 19 24 30 72 72 3 79 146 221 241 223 190 141 250 219 251 287 260 275 329 356 333 317 309 317 316 293 283 279 259 237 209 238 52 63 30 11 72 8 3 36 7 345 7 339 310 325 330 314 312 344 37 12 354 2 344 328 324 325 320 318 317 314 313 314 320 328 328 322 319 321 322 320 318 316 316 313 310 308 309 313 318